DW1449 Weather Reports


Display with metric or nautical units.
time (UTC)temp
F
wind
direction
speed
MPH
gust
MPH
rain 1hr
in
rain 24hr
in
rain mn
in
humidity
%
barometer
mb
20260502214559 58 0.0 0.0 0.00 0.00 0.00 69 1013.4
20260502214035 58 0.0 0.0 0.00 0.00 0.00 69 1013.7
20260502213537 58 0.0 0.0 0.00 0.00 0.00 68 1013.7
20260502213042 58 0.0 0.0 0.00 0.00 0.00 68 1013.7
20260502212535 58 0.0 0.0 0.00 0.00 0.00 69 1013.7
20260502212035 58 0.0 0.0 0.00 0.00 0.00 69 1013.8
20260502211601 58 0.0 0.0 0.00 0.00 0.00 68 1013.7
20260502211034 58 0.0 0.0 0.00 0.00 0.00 68 1013.7
20260502210534 58 0.0 0.0 0.00 0.00 0.00 67 1013.9
20260502210052 58 0.0 0.0 0.00 0.00 0.00 67 1013.9
20260502205534 59 0.0 0.0 0.00 0.00 0.00 67 1014.0
20260502205034 59 0.0 0.0 0.00 0.00 0.00 67 1014.1
20260502204551 59 0.0 0.0 0.00 0.00 0.00 67 1014.0
20260502204035 59 0.0 0.0 0.00 0.00 0.00 66 1014.1
20260502203534 59 0.0 0.0 0.00 0.00 0.00 66 1014.0
20260502203056 59 0.0 0.0 0.00 0.00 0.00 65 1014.0
20260502202534 59 0.0 0.0 0.00 0.00 0.00 65 1013.9
20260502202036 59 0.0 0.0 0.00 0.00 0.00 65 1014.1
20260502201604 59 0.0 0.0 0.00 0.00 0.00 65 1014.2
20260502201035 59 0.0 0.0 0.00 0.00 0.00 64 1014.1
20260502200534 59 0.0 0.0 0.00 0.00 0.00 64 1014.2
20260502200047 59 0.0 0.0 0.00 0.00 0.00 63 1014.3
20260502195535 59 0.0 0.0 0.00 0.00 0.00 63 1014.3
20260502195033 59 0.0 0.0 0.00 0.00 0.00 63 1014.4
20260502194552 60 0.0 0.0 0.00 0.00 0.00 62 1014.2
20260502194034 60 0.0 0.0 0.00 0.00 0.00 62 1014.4
20260502193535 60 0.0 0.0 0.00 0.00 0.00 62 1014.3
20260502193044 60 0.0 0.0 0.00 0.00 0.00 62 1014.3
20260502192534 60 0.0 0.0 0.00 0.00 0.00 61 1014.2
20260502192033 60 0.0 0.0 0.00 0.00 0.00 61 1014.2
20260502191545 60 0.0 0.0 0.00 0.00 0.00 61 1014.1
20260502191034 61 0.0 0.0 0.00 0.00 0.00 60 1014.3
20260502190534 61 0.0 0.0 0.00 0.00 0.00 60 1014.2
20260502190047 61 0.0 0.0 0.00 0.00 0.00 59 1014.2
20260502185535 62 0.0 0.0 0.00 0.00 0.00 59 1014.3
20260502185035 62 0.0 0.0 0.00 0.00 0.00 58 1014.3
20260502184545 62 0.0 0.0 0.00 0.00 0.00 58 1014.3
20260502184034 63 0.0 0.0 0.00 0.00 0.00 57 1014.2
20260502183531 63 0.0 0.0 0.00 0.00 0.00 57 1014.3
20260502183043 63 0.0 0.0 0.00 0.00 0.00 56 1014.4
20260502182535 64 0.0 0.0 0.00 0.00 0.00 56 1014.2
20260502182034 64 0.0 0.0 0.00 0.00 0.00 55 1014.3
20260502181541 65 0.0 0.0 0.00 0.00 0.00 54 1014.3
20260502181037 65 0.0 0.0 0.00 0.00 0.00 54 1014.4
20260502180534 66 0.0 0.0 0.00 0.00 0.00 53 1014.2
20260502164034 70 0.0 0.0 0.00 0.00 0.00 45 1014.7
20260502163533 70 0.0 0.0 0.00 0.00 0.00 45 1014.8
20260502163045 70 0.0 0.0 0.00 0.00 0.00 45 1014.7
20260502162534 70 0.0 0.0 0.00 0.00 0.00 45 1014.9
20260502162033 70 0.0 0.0 0.00 0.00 0.00 44 1014.9
20260502161551 70 0.0 0.0 0.00 0.00 0.00 45 1015.0
20260502161035 70 0.0 0.0 0.00 0.00 0.00 45 1014.9
20260502160534 70 0.0 0.0 0.00 0.00 0.00 44 1015.1
20260502152034 70 0.0 0.0 0.00 0.00 0.00 43 1015.5
20260502151556 70 0.0 0.0 0.00 0.00 0.00 43 1015.5
20260502151036 70 0.0 0.0 0.00 0.00 0.00 43 1015.7
20260502150534 70 0.0 0.0 0.00 0.00 0.00 45 1015.7
20260502130539 70 0.0 0.0 0.00 0.00 0.00 50 1017.2
20260502123534 70 0.0 0.0 0.00 0.00 0.00 51 1017.6
20260502123044 70 0.0 0.0 0.00 0.00 0.00 49 1017.6
20260502122534 70 0.0 0.0 0.00 0.00 0.00 51 1017.9
20260502122034 69 0.0 0.0 0.00 0.00 0.00 52 1017.8
20260502121546 70 0.0 0.0 0.00 0.00 0.00 50 1017.9
20260502121034 69 0.0 0.0 0.00 0.00 0.00 53 1018.0
20260502120534 69 0.0 0.0 0.00 0.00 0.00 51 1018.1
20260502115534 69 0.0 0.0 0.00 0.00 0.00 53 1018.1
20260502115034 69 0.0 0.0 0.00 0.00 0.00 54 1018.1
20260502114621 69 0.0 0.0 0.00 0.00 0.00 54 1018.2
20260502114034 68 0.0 0.0 0.00 0.00 0.00 55 1018.2
20260502113536 68 0.0 0.0 0.00 0.00 0.00 55 1018.2
20260502113050 68 0.0 0.0 0.00 0.00 0.00 55 1018.4
20260502112535 68 0.0 0.0 0.00 0.00 0.00 56 1018.4
20260502112034 67 0.0 0.0 0.00 0.00 0.00 57 1018.3
20260502111543 67 0.0 0.0 0.00 0.00 0.00 54 1018.6
20260502111031 67 0.0 0.0 0.00 0.00 0.00 54 1018.6
20260502110536 67 0.0 0.0 0.00 0.00 0.00 56 1018.5
20260502110043 67 0.0 0.0 0.00 0.00 0.00 57 1018.8
20260502105534 67 0.0 0.0 0.00 0.00 0.00 54 1018.8
20260502105033 67 0.0 0.0 0.00 0.00 0.00 56 1018.9
20260502104549 67 0.0 0.0 0.00 0.00 0.00 56 1019.0
20260502104035 67 0.0 0.0 0.00 0.00 0.00 57 1019.0
20260502103536 66 0.0 0.0 0.00 0.00 0.00 56 1018.9
20260502103047 66 0.0 0.0 0.00 0.00 0.00 56 1019.1
20260502102534 66 0.0 0.0 0.00 0.00 0.00 57 1019.1
20260502102035 66 0.0 0.0 0.00 0.00 0.00 58 1019.1
20260502101604 66 0.0 0.0 0.00 0.00 0.00 59 1019.0
20260502101036 66 0.0 0.0 0.00 0.00 0.00 56 1019.0
20260502100534 66 0.0 0.0 0.00 0.00 0.00 57 1019.2
20260502100107 65 0.0 0.0 0.00 0.00 0.00 58 1019.2
20260502091037 64 0.0 0.0 0.00 0.00 0.00 57 1019.7
20260502090533 64 0.0 0.0 0.00 0.00 0.00 60 1019.6
20260502071035 61 0.0 0.0 0.00 0.00 0.00 61 1020.2
20260502070536 61 0.0 0.0 0.00 0.00 0.00 62 1020.4
20260502070059 60 0.0 0.0 0.00 0.00 0.00 61 1020.4
20260502065536 60 0.0 0.0 0.00 0.00 0.00 63 1020.4
20260502065035 60 0.0 0.0 0.00 0.00 0.00 62 1020.4
20260502064611 59 0.0 0.0 0.00 0.00 0.00 63 1020.6
20260502064035 59 0.0 0.0 0.00 0.00 0.00 66 1020.5
20260502063536 59 0.0 0.0 0.00 0.00 0.00 66 1020.5
20260502063054 58 0.0 0.0 0.00 0.00 0.00 65 1020.6
20260502062534 58 0.0 0.0 0.00 0.00 0.00 67 1020.8
20260502062038 57 0.0 0.0 0.00 0.00 0.00 65 1020.6
20260502061550 57 0.0 0.0 0.00 0.00 0.00 65 1020.9
20260502061036 57 0.0 0.0 0.00 0.00 0.00 66 1020.8
20260502060538 57 0.0 0.0 0.00 0.00 0.00 66 1021.0
20260502060047 56 0.0 0.0 0.00 0.00 0.00 66 1021.0
20260502055538 56 0.0 0.0 0.00 0.00 0.00 67 1021.0
20260502055037 56 0.0 0.0 0.00 0.00 0.00 67 1021.0
20260502054542 55 0.0 0.0 0.00 0.00 0.00 66 1021.0
20260502054035 55 0.0 0.0 0.00 0.00 0.00 67 1021.0
20260502053535 55 0.0 0.0 0.00 0.00 0.00 68 1021.0
20260502053055 55 0.0 0.0 0.00 0.00 0.00 68 1021.0
20260502052537 54 0.0 0.0 0.00 0.00 0.00 68 1021.2
20260502052035 54 0.0 0.0 0.00 0.00 0.00 69 1021.1
20260502051548 53 0.0 0.0 0.00 0.00 0.00 69 1021.1
20260502051033 53 0.0 0.0 0.00 0.00 0.00 71 1021.2
20260502050537 53 0.0 0.0 0.00 0.00 0.00 71 1021.4
20260502050047 52 0.0 0.0 0.00 0.00 0.00 72 1021.4
20260502045534 51 0.0 0.0 0.00 0.00 0.00 73 1021.4
20260502045035 51 0.0 0.0 0.00 0.00 0.00 74 1021.5
20260502044543 50 0.0 0.0 0.00 0.00 0.00 74 1021.5
20260502044035 50 0.0 0.0 0.00 0.00 0.00 74 1021.4
20260502043534 49 0.0 0.0 0.00 0.00 0.00 75 1021.5
20260502043113 49 0.0 0.0 0.00 0.00 0.00 74 1021.6
20260502042536 49 0.0 0.0 0.00 0.00 0.00 75 1021.6
20260502042035 49 0.0 0.0 0.00 0.00 0.00 75 1021.6
20260502041548 49 0.0 0.0 0.00 0.00 0.00 75 1021.6
20260502041038 48 0.0 0.0 0.00 0.00 0.00 76 1021.7
20260502040534 48 0.0 0.0 0.00 0.00 0.00 77 1021.7
20260502040039 48 0.0 0.0 0.00 0.00 0.00 77 1021.7
20260502035535 48 0.0 0.0 0.00 0.00 0.00 78 1021.7
20260502035035 47 0.0 0.0 0.00 0.00 0.00 78 1021.8
20260502034544 47 0.0 0.0 0.00 0.00 0.00 78 1021.8
20260502034036 47 0.0 0.0 0.00 0.00 0.00 78 1022.0
20260502033535 47 0.0 0.0 0.00 0.00 0.00 79 1021.9
20260502033042 47 0.0 0.0 0.00 0.00 0.00 79 1022.0
20260502032535 47 0.0 0.0 0.00 0.00 0.00 79 1022.0
20260502032034 47 0.0 0.0 0.00 0.00 0.00 79 1022.2
20260502031540 48 0.0 0.0 0.00 0.00 0.00 79 1022.2
20260502031034 48 0.0 0.0 0.00 0.00 0.00 79 1022.2
20260502030535 48 0.0 0.0 0.00 0.00 0.00 79 1022.2
20260502030051 47 0.0 0.0 0.00 0.00 0.00 79 1022.4
20260502025535 47 0.0 0.0 0.00 0.00 0.00 79 1022.5
20260502025035 48 0.0 0.0 0.00 0.00 0.00 79 1022.5
20260502024547 48 0.0 0.0 0.00 0.00 0.00 79 1022.6
20260502024034 48 0.0 0.0 0.00 0.00 0.00 79 1022.6
20260502023537 48 0.0 0.0 0.00 0.00 0.00 78 1022.6
20260502023052 48 0.0 0.0 0.00 0.00 0.00 78 1022.7
20260502022534 48 0.0 0.0 0.00 0.00 0.00 78 1022.7
20260502022036 48 0.0 0.0 0.00 0.00 0.00 77 1022.7
20260502021541 48 0.0 0.0 0.00 0.00 0.00 78 1022.7
20260502021036 48 0.0 0.0 0.00 0.00 0.00 77 1022.8
20260502020539 48 0.0 0.0 0.00 0.00 0.00 77 1023.0
20260502020048 48 0.0 0.0 0.00 0.00 0.00 78 1022.8
20260502015536 48 0.0 0.0 0.00 0.00 0.00 78 1023.0
20260502015033 48 0.0 0.0 0.00 0.00 0.00 78 1023.0
20260502014548 49 0.0 0.0 0.00 0.00 0.00 78 1023.1
20260502014033 49 0.0 0.0 0.00 0.00 0.00 77 1023.2
20260502013535 49 0.0 0.0 0.00 0.00 0.00 78 1023.1
20260502013051 48 0.0 0.0 0.00 0.00 0.00 77 1023.4
20260502012535 49 0.0 0.0 0.00 0.00 0.00 76 1023.2
20260502012033 49 0.0 0.0 0.00 0.00 0.00 77 1023.1
20260502011556 49 0.0 0.0 0.00 0.00 0.00 77 1023.2
20260502011035 49 0.0 0.0 0.00 0.00 0.00 78 1023.3
20260502010535 49 0.0 0.0 0.00 0.00 0.00 78 1023.3
20260502010052 48 0.0 0.0 0.00 0.00 0.00 79 1023.3
20260502005534 47 0.0 0.0 0.00 0.00 0.00 80 1023.4
20260502005032 47 0.0 0.0 0.00 0.00 0.00 81 1023.5
20260502004549 46 0.0 0.0 0.00 0.00 0.00 80 1023.6
20260502004033 46 0.0 0.0 0.00 0.00 0.00 81 1023.7
20260502003532 46 0.0 0.0 0.00 0.00 0.00 80 1023.7
20260502003046 46 0.0 0.0 0.00 0.00 0.00 80 1023.8
20260502002532 46 0.0 0.0 0.00 0.00 0.00 80 1023.7
20260502002035 46 0.0 0.0 0.00 0.00 0.00 80 1023.8
20260502001547 46 0.0 0.0 0.00 0.00 0.00 80 1023.7
20260502001034 46 0.0 0.0 0.00 0.00 0.00 80 1023.9
20260502000532 46 0.0 0.0 0.00 0.00 0.00 80 1023.8
20260502000051 45 0.0 0.0 0.00 0.00 0.00 80 1023.9
20260501235532 45 0.0 0.0 0.00 0.00 0.00 79 1023.9
20260501235032 45 0.0 0.0 0.00 0.00 0.00 79 1023.9
20260501234542 46 0.0 0.0 0.00 0.00 0.00 78 1024.0
20260501234034 46 0.0 0.0 0.00 0.00 0.00 77 1024.1
20260501233535 46 0.0 0.0 0.00 0.00 0.00 77 1024.0
20260501233047 47 0.0 0.0 0.00 0.00 0.00 77 1024.0
20260501232535 47 0.0 0.0 0.00 0.00 0.00 76 1024.0
20260501232040 48 0.0 0.0 0.00 0.00 0.00 75 1024.0
20260501231546 48 0.0 0.0 0.00 0.00 0.00 75 1024.1
20260501231035 49 0.0 0.0 0.00 0.00 0.00 75 1024.2
20260501230535 49 0.0 0.0 0.00 0.00 0.00 75 1024.2
20260501230042 49 0.0 0.0 0.00 0.00 0.00 74 1024.3
20260501225538 49 0.0 0.0 0.00 0.00 0.00 73 1024.4
20260501225036 49 0.0 0.0 0.00 0.00 0.00 72 1024.4
20260501224542 50 0.0 0.0 0.00 0.00 0.00 71 1024.4
20260501224033 50 0.0 0.0 0.00 0.00 0.00 71 1024.4
20260501223532 50 0.0 0.0 0.00 0.00 0.00 71 1024.5
20260501223042 50 0.0 0.0 0.00 0.00 0.00 70 1024.4
20260501222535 50 0.0 0.0 0.00 0.00 0.00 70 1024.4
20260501222033 50 0.0 0.0 0.00 0.00 0.00 68 1024.4
20260501221540 51 0.0 0.0 0.00 0.00 0.00 67 1024.5
20260501221035 51 0.0 0.0 0.00 0.00 0.00 67 1024.6
20260501220535 52 0.0 0.0 0.00 0.00 0.00 67 1024.7
20260501220046 52 0.0 0.0 0.00 0.00 0.00 66 1024.7
20260501215532 52 0.0 0.0 0.00 0.00 0.00 65 1024.7
20260501215035 52 0.0 0.0 0.00 0.00 0.00 65 1024.6